Wind_Speed
20 20 20 19 18 16 15 15 14 14 13 14 14 13 11 12 13 15 18 8 6 15 11 9 7 7 10 8 8 6 3 4 7 7 10 2 4 7 12 12 13 16 20 25 16
22 20 20 20 19 18 15 13 13 13 13 12 13 14 12 10 13 14 3 6 8 12 13 8 4 6 6 6 7 4 4 7 6 5 6 7 8 13 7 20 14 26 22 20 13
25 22 21 22 20 17 14 12 11 11 11 11 11 11 11 10 8 3 5 1 12 11 9 8 5 6 4 4 6 4 4 4 3 7 12 5 8 17 5 18 13 19 24 17 12
27 25 22 21 20 16 14 11 9 9 10 10 9 9 8 6 2 3 4 5 13 11 10 7 8 6 4 4 6 1 6 7 11 19 20 10 21 15 19 29 30 26 27 29 18
29 28 25 21 18 16 13 12 10 9 8 9 8 7 6 5 4 3 2 3 6 8 8 9 9 4 2 2 2 4 5 13 16 17 19 25 14 17 32 25 31 31 30 28 26
31 30 26 21 16 15 14 12 10 9 8 7 7 8 5 3 1 4 6 4 4 8 12 9 4 1 2 2 4 2 4 8 7 11 8 7 11 12 10 13 23 26 26 27 26
31 30 26 21 16 14 12 11 11 11 10 8 7 7 10 10 3 6 7 4 4 6 8 5 1 2 1 3 2 3 3 7 4 6 5 4 10 9 17 12 19 25 24 24 19
30 31 25 21 16 14 12 12 13 13 12 9 7 8 8 4 7 10 9 6 6 6 5 5 4 7 3 3 6 4 4 3 5 4 7 6 14 8 11 14 17 21 23 21 18
29 30 27 23 17 13 13 15 14 14 12 8 7 6 7 1 2 10 10 8 6 4 5 9 6 3 1 4 5 5 2 2 7 6 5 5 6 6 25 16 20 22 25 25 29
29 29 28 25 21 14 11 16 11 11 8 7 8 5 5 3 5 4 12 11 8 4 2 2 4 3 3 4 3 4 3 3 4 5 4 10 15 9 24 17 20 21 23 27 30
32 30 28 27 25 16 11 11 6 4 7 10 15 20 20 8 4 3 8 13 10 3 3 2 1 5 8 7 6 3 3 5 9 14 5 9 14 12 19 21 21 25 21 23 27
34 32 30 29 29 16 12 6 2 8 11 19 21 26 25 17 7 7 5 9 6 6 4 4 7 8 5 4 4 5 5 8 7 11 6 8 13 10 7 10 24 22 18 15 20
34 34 32 28 29 15 10 4 6 11 4 10 7 8 11 16 10 13 10 12 4 5 6 6 7 4 5 3 4 4 4 5 7 7 4 5 13 6 6 10 20 19 17 12 12
33 35 32 28 17 10 6 5 6 7 4 5 3 3 10 7 5 17 17 11 2 9 7 5 4 3 3 5 5 4 5 6 6 4 5 2 18 9 4 10 9 23 23 19 18
34 36 30 23 21 11 5 3 7 2 3 2 2 4 10 7 2 2 15 19 7 5 5 7 2 2 3 5 3 7 3 4 5 7 4 2 5 2 2 7 9 9 22 26 22
36 35 27 21 14 2 6 3 3 3 4 2 4 4 5 3 1 2 4 9 5 5 2 7 1 3 4 0 3 1 2 3 2 2 9 8 8 20 17 7 5 7 13 17 22
38 33 19 17 0 6 2 1 2 2 5 4 3 2 2 2 3 2 3 3 6 3 5 2 3 1 1 0 1 4 5 4 4 1 9 4 5 16 9 5 8 8 12 10 12
38 24 12 2 4 2 1 3 2 3 5 4 4 6 3 1 2 3 3 2 2 3 2 4 5 4 4 4 2 1 5 4 6 6 14 6 7 15 2 3 10 14 5 6 9
33 14 8 5 6 2 1 2 3 1 5 7 9 3 2 0 2 0 1 3 3 3 4 4 4 4 3 2 4 0 3 2 3 7 6 5 9 13 5 9 13 3 5 13 16
26 7 15 6 4 3 4 2 2 3 8 5 3 2 4 1 1 2 1 1 1 4 3 2 2 2 3 2 4 3 4 1 1 4 6 4 4 7 9 8 10 10 11 13 9
13 4 13 5 2 2 2 1 3 14 18 4 4 4 1 3 3 3 3 1 2 2 4 3 3 3 1 4 6 1 1 2 1 3 4 4 3 5 5 5 7 8 14 15 17
12 2 12 2 2 2 1 4 8 10 24 6 3 2 1 3 3 4 4 2 1 5 4 2 4 4 8 4 6 4 6 5 4 6 4 3 8 7 2 8 8 17 22 28 26
15 7 9 4 2 2 5 4 2 3 5 6 4 4 3 1 2 1 1 1 4 4 6 5 1 2 7 4 3 2 4 4 2 2 6 3 8 2 5 9 13 15 27 30 31
9 4 6 10 7 4 4 4 5 7 8 9 6 3 3 2 1 2 2 2 2 2 3 8 4 6 6 6 4 4 4 5 6 2 7 13 20 21 13 6 9 17 24 30 33
9 2 3 4 3 6 4 3 10 6 3 6 8 8 7 4 4 4 3 3 3 1 3 4 3 4 5 8 6 10 11 9 8 13 9 20 16 17 5 5 8 17 23 26 33
5 5 5 7 8 5 2 2 10 3 2 3 6 13 9 4 8 8 5 3 6 1 2 2 2 1 4 10 8 12 11 9 10 4 7 9 11 8 5 10 11 17 22 28 32
1 2 3 4 5 4 2 3 5 10 6 12 9 10 10 12 15 20 18 8 4 6 5 3 4 2 4 3 7 6 4 4 5 6 9 6 4 6 6 9 14 25 28 31 34
Wind_Direction
347 339 334 331 326 320 314 305 302 301 302 304 302 302 299 302 296 287 286 285 273 207 182 161 155 168 189 191 184 175 96 213 209 190 239 268 344 302 305 279 297 307 306 314 284
357 351 345 339 333 323 316 308 301 301 302 304 304 305 306 307 304 301 327 268 200 183 195 201 176 167 163 184 182 157 161 220 209 217 274 290 292 306 312 292 284 299 305 328 266
1 359 354 345 341 333 324 315 307 306 306 306 307 308 313 318 326 31 19 194 179 162 170 169 157 153 170 173 189 186 219 202 245 250 264 263 277 282 269 279 265 287 302 319 237
3 359 356 352 348 345 335 329 322 319 316 312 310 312 317 317 97 66 65 103 169 186 194 187 154 149 128 186 216 204 235 224 252 256 260 265 264 257 249 259 279 284 288 294 282
3 0 356 357 356 353 349 340 336 331 328 323 318 316 317 294 260 177 101 136 168 176 180 157 155 153 172 208 181 194 247 260 269 275 267 271 259 260 262 268 282 282 281 281 267
4 360 357 356 0 360 354 351 346 342 335 328 320 315 307 286 191 202 177 197 186 162 159 158 156 199 234 220 165 237 266 283 295 284 261 240 252 235 279 286 281 278 274 273 267
6 1 357 356 353 354 352 348 344 342 338 323 315 305 285 266 211 174 173 198 201 172 164 182 319 311 288 271 205 278 293 329 258 266 234 238 284 235 275 277 269 271 265 266 259
5 3 1 355 349 343 344 339 327 316 321 321 306 303 268 247 212 189 189 193 177 179 205 245 282 302 233 302 15 7 47 32 292 334 276 173 258 304 310 268 260 268 266 262 248
3 3 2 353 341 333 329 330 320 307 295 300 297 302 274 172 251 212 208 199 211 231 278 278 282 214 119 77 10 5 255 333 317 299 290 186 281 290 309 287 277 275 273 277 280
356 354 352 351 336 321 317 324 319 309 282 275 273 293 242 164 326 255 214 217 228 252 290 155 151 103 48 73 246 268 299 261 254 275 213 274 277 268 289 281 269 271 268 270 276
348 344 343 342 336 309 303 327 331 300 273 235 270 269 281 307 312 175 204 199 219 172 196 5 116 203 220 200 213 231 232 245 262 272 234 259 269 269 269 285 286 282 278 282 280
342 336 333 336 334 307 276 283 295 306 292 285 268 254 257 260 306 222 197 180 164 190 127 15 256 216 199 197 209 230 261 274 277 263 178 269 264 239 245 252 265 274 287 295 288
340 338 327 330 332 310 257 247 315 333 290 297 263 240 230 219 222 245 206 203 168 176 181 178 227 99 166 247 251 248 202 253 240 304 296 263 274 285 238 246 261 269 271 279 300
335 339 328 320 333 318 257 211 311 319 25 274 256 211 164 140 233 235 205 188 200 216 163 231 262 216 159 246 172 269 227 254 277 349 281 106 288 267 223 240 250 259 263 272 293
330 338 326 322 316 285 206 275 310 215 342 183 170 161 174 177 318 181 207 200 198 188 124 241 157 146 211 234 130 237 323 300 279 271 282 180 276 268 188 246 248 262 267 286 291
328 335 325 320 321 281 175 281 189 47 255 18 124 170 145 224 315 45 156 204 249 167 245 240 245 191 218 245 195 301 349 299 59 138 258 252 197 275 264 233 244 253 267 283 293
329 334 323 313 275 135 194 231 36 203 311 13 29 11 239 226 141 139 175 185 194 147 245 318 218 221 147 295 239 68 46 328 320 313 266 187 214 249 275 196 234 254 282 307 308
333 338 323 266 153 180 157 68 206 295 10 352 339 300 172 121 55 4 5 317 3 111 117 174 309 183 192 163 242 353 152 182 261 265 290 333 243 254 29 245 276 270 198 63 13
341 9 44 87 131 46 205 125 231 295 342 321 311 221 156 114 140 48 190 202 204 179 158 151 269 305 21 93 110 222 183 204 263 249 269 238 285 301 45 28 1 88 306 69 60
345 46 28 116 120 352 78 214 280 262 339 310 277 264 211 223 84 58 263 233 281 57 67 192 291 254 288 74 28 164 157 182 260 277 255 232 268 251 354 0 3 4 328 318 339
0 70 12 161 157 14 126 229 298 343 357 314 298 284 313 169 192 219 247 334 142 108 78 132 153 265 305 193 199 156 129 95 203 239 290 310 284 332 294 320 318 303 334 333 318
358 49 20 177 32 40 71 314 337 330 339 293 313 306 261 164 250 222 212 238 55 150 163 150 159 227 231 268 248 168 189 163 132 278 252 211 269 230 311 313 344 331 346 354 359
345 314 15 18 62 22 325 318 291 25 351 309 302 4 6 231 296 315 259 46 127 145 173 185 209 345 332 353 350 199 191 173 133 118 228 234 264 201 290 1 3 343 340 346 343
352 353 355 50 59 43 356 302 340 345 277 322 284 36 1 301 151 265 280 245 316 231 192 151 158 178 209 234 186 263 241 217 175 199 269 237 276 281 292 325 329 330 334 337 335
6 18 22 323 337 333 297 309 298 292 278 346 313 25 8 310 314 250 245 310 315 46 87 123 206 196 252 258 248 258 260 250 208 238 240 278 264 280 264 282 299 318 332 330 327
9 358 349 297 303 305 230 275 286 303 7 272 257 327 327 260 248 273 216 209 236 5 130 15 255 120 273 266 261 266 259 251 256 238 292 295 289 269 296 321 321 322 322 314 313
16 314 321 302 302 300 245 285 330 349 264 244 258 316 276 268 286 267 259 226 203 177 186 146 157 114 262 314 308 276 218 222 230 227 260 271 259 335 315 311 304 305 300 297 295
Height
1504 1501 1498 1494 1492 1489 1486 1485 1483 1483 1481 1481 1480 1478 1477 1476 1475 1472 1468 1469 1468 1472 1475 1477 1479 1481 1482 1486 1488 1491 1501 1508 1499 1496 1486 1483 1486 1486 1489 1487 1488 1485 1482 1479 1478
1503 1499 1496 1492 1489 1486 1484 1482 1481 1480 1479 1478 1478 1476 1474 1473 1472 1468 1469 1466 1468 1470 1474 1476 1479 1480 1483 1485 1486 1488 1500 1498 1491 1487 1486 1486 1488 1486 1487 1484 1483 1481 1479 1476 1475
1503 1498 1494 1491 1487 1484 1482 1480 1479 1478 1478 1476 1476 1474 1473 1472 1469 1467 1466 1465 1467 1471 1473 1475 1478 1480 1482 1485 1486 1485 1492 1487 1486 1486 1484 1483 1484 1484 1483 1477 1479 1479 1478 1478 1478
1502 1498 1493 1490 1486 1483 1481 1479 1478 1476 1476 1475 1474 1473 1472 1471 1471 1467 1467 1467 1468 1471 1473 1476 1478 1480 1480 1484 1481 1485 1484 1483 1484 1482 1482 1479 1482 1480 1477 1471 1475 1476 1477 1475 1475
1503 1498 1494 1489 1486 1483 1481 1479 1477 1476 1475 1474 1473 1472 1472 1471 1467 1467 1467 1467 1469 1471 1473 1474 1476 1477 1479 1481 1482 1485 1482 1480 1479 1480 1479 1478 1477 1476 1462 1470 1469 1470 1471 1469 1473
1504 1499 1494 1490 1486 1484 1482 1480 1478 1476 1474 1473 1472 1471 1471 1471 1466 1466 1467 1468 1469 1471 1473 1475 1477 1478 1479 1480 1481 1480 1479 1478 1476 1476 1475 1475 1470 1468 1459 1465 1464 1463 1462 1463 1465
1504 1499 1494 1491 1488 1484 1482 1480 1478 1477 1474 1472 1471 1470 1469 1466 1464 1465 1467 1468 1469 1471 1472 1474 1476 1478 1478 1479 1478 1478 1480 1476 1474 1473 1472 1471 1466 1460 1460 1461 1458 1456 1457 1456 1457
1504 1499 1494 1491 1488 1485 1482 1480 1478 1476 1474 1472 1470 1469 1464 1462 1463 1465 1466 1467 1468 1469 1471 1473 1475 1475 1475 1475 1476 1478 1481 1486 1475 1472 1468 1469 1465 1457 1458 1458 1454 1453 1454 1454 1455
1505 1500 1495 1490 1487 1485 1482 1479 1476 1474 1473 1471 1471 1469 1462 1462 1462 1463 1464 1466 1468 1469 1470 1472 1473 1474 1476 1481 1489 1488 1492 1488 1484 1472 1469 1467 1466 1457 1456 1458 1455 1453 1450 1450 1451
1505 1500 1495 1490 1485 1482 1480 1478 1474 1471 1470 1470 1469 1472 1463 1462 1461 1461 1462 1464 1467 1468 1470 1469 1470 1475 1481 1486 1499 1490 1488 1485 1484 1471 1467 1468 1464 1460 1455 1453 1449 1449 1448 1448 1446
1503 1498 1494 1489 1483 1480 1478 1477 1477 1473 1469 1465 1464 1462 1460 1461 1460 1460 1461 1463 1465 1468 1471 1470 1475 1480 1477 1478 1478 1481 1484 1487 1477 1466 1469 1467 1461 1457 1451 1448 1445 1442 1442 1441 1438
1500 1495 1489 1486 1480 1476 1475 1475 1473 1474 1464 1457 1455 1456 1457 1460 1461 1459 1460 1463 1464 1469 1469 1475 1478 1470 1469 1472 1476 1479 1482 1481 1472 1462 1468 1465 1457 1452 1449 1445 1440 1438 1438 1436 1432
1497 1491 1485 1480 1475 1472 1472 1474 1472 1469 1467 1453 1451 1450 1452 1457 1458 1456 1459 1460 1462 1467 1469 1475 1466 1462 1467 1469 1473 1473 1477 1474 1472 1461 1458 1456 1447 1446 1442 1439 1435 1433 1431 1429 1427
1493 1487 1481 1476 1474 1471 1472 1472 1471 1469 1474 1456 1450 1449 1451 1453 1454 1451 1455 1459 1461 1464 1467 1468 1460 1461 1465 1469 1469 1475 1464 1465 1465 1467 1476 1455 1449 1444 1440 1437 1430 1424 1424 1424 1423
1489 1483 1477 1473 1471 1468 1471 1471 1470 1469 1482 1449 1448 1448 1449 1452 1450 1450 1451 1455 1458 1460 1464 1465 1459 1460 1463 1463 1463 1468 1460 1463 1462 1467 1465 1462 1471 1434 1434 1433 1427 1422 1421 1419 1420
1484 1478 1471 1469 1467 1466 1468 1470 1471 1477 1477 1448 1446 1448 1450 1449 1449 1449 1450 1453 1454 1459 1459 1459 1457 1457 1457 1457 1459 1459 1461 1462 1467 1470 1469 1457 1465 1424 1426 1428 1423 1418 1416 1416 1415
1478 1473 1467 1465 1467 1466 1468 1469 1479 1480 1452 1453 1450 1447 1448 1450 1449 1450 1451 1456 1460 1467 1467 1458 1457 1455 1456 1460 1460 1463 1471 1483 1481 1481 1456 1446 1455 1429 1411 1418 1417 1416 1412 1412 1409
1472 1466 1463 1463 1464 1467 1467 1471 1481 1465 1460 1452 1451 1448 1451 1449 1450 1450 1453 1458 1454 1457 1468 1469 1470 1456 1457 1457 1461 1463 1470 1486 1486 1469 1453 1450 1447 1418 1411 1411 1412 1410 1410 1408 1404
1468 1463 1462 1463 1465 1467 1468 1475 1473 1466 1461 1458 1451 1451 1452 1451 1452 1453 1456 1457 1454 1454 1465 1470 1468 1455 1453 1456 1461 1467 1473 1470 1471 1463 1465 1454 1436 1417 1413 1414 1412 1409 1415 1407 1402
1465 1463 1464 1465 1466 1467 1470 1473 1468 1463 1461 1458 1459 1449 1453 1453 1453 1454 1455 1450 1451 1453 1453 1460 1471 1459 1457 1458 1462 1463 1466 1471 1474 1466 1465 1446 1444 1432 1422 1420 1417 1416 1414 1412 1408
1466 1463 1467 1466 1467 1467 1475 1470 1466 1464 1465 1460 1456 1454 1452 1454 1455 1457 1453 1452 1451 1454 1455 1461 1468 1465 1462 1462 1463 1468 1471 1472 1473 1470 1460 1452 1443 1432 1431 1425 1420 1415 1414 1412 1405
1469 1468 1467 1466 1470 1472 1475 1472 1469 1467 1464 1460 1455 1453 1452 1453 1455 1455 1455 1452 1450 1452 1457 1461 1469 1471 1462 1456 1456 1458 1462 1468 1483 1483 1474 1479 1441 1421 1424 1423 1416 1412 1407 1404 1403
1475 1471 1468 1466 1472 1476 1475 1472 1469 1468 1470 1464 1459 1455 1453 1454 1458 1454 1453 1452 1452 1453 1457 1459 1469 1476 1463 1461 1456 1456 1458 1460 1465 1472 1464 1475 1440 1423 1421 1418 1416 1414 1409 1404 1398
1480 1479 1472 1471 1476 1479 1479 1475 1472 1469 1469 1468 1461 1456 1455 1455 1454 1458 1455 1452 1452 1451 1452 1454 1465 1463 1469 1460 1463 1463 1456 1456 1463 1478 1454 1446 1433 1420 1421 1421 1416 1414 1411 1404 1400
1485 1486 1485 1485 1479 1482 1481 1476 1474 1471 1468 1468 1465 1459 1462 1461 1457 1456 1455 1454 1452 1451 1453 1456 1461 1462 1459 1456 1455 1453 1452 1451 1458 1451 1453 1428 1432 1422 1422 1419 1416 1413 1408 1405 1399
1489 1489 1486 1485 1482 1480 1477 1474 1471 1469 1473 1471 1470 1463 1463 1463 1459 1456 1454 1455 1455 1452 1453 1457 1464 1459 1458 1450 1451 1449 1444 1443 1441 1442 1438 1433 1430 1420 1419 1417 1415 1411 1408 1405 1399
1489 1489 1487 1486 1483 1480 1476 1472 1470 1473 1470 1469 1469 1469 1461 1456 1452 1448 1448 1447 1448 1451 1455 1458 1462 1468 1458 1451 1452 1450 1439 1437 1438 1436 1432 1432 1425 1423 1420 1417 1414 1410 1406 1399 1392